Location: Bijele Vode
(45.2833°N, 16.2000°E)
Time: 14:04:48
(UTC+00:00)

Meteor 1-24 Rocket - Pass Details

Date: 18 September 2020
Orbit: 790 x 927 km, 81.2° (Epoch: 30 October)

Event Time Altitude Azimuth Distance (km) Brightness Sun altitude
Rises 19:06:24 0° 353° (N) 3,348 7.3 -22.2°
Reaches altitude 10° 19:08:51 10° 359° (N) 2,429 6.4 -22.6°
Maximum altitude 19:14:10 49° 75° (ENE) 1,074 3.9 -23.5°
Enters shadow 19:14:19 49° 80° (E) 1,077 3.9 -23.5°
